Location: Beugnon
(47.6222°N, 3.7850°E)
Time: 11:41:07
(UTC+00:00)

Cosmos 1833 Rocket - Pass Details

Date: 09 April 2020
Orbit: 834 x 838 km, 71.0° (Epoch: 02 June)

Event Time Altitude Azimuth Distance (km) Brightness Sun altitude
Exits shadow 22:20:56 44° 277° (W) 1,140 3.5 -31.2°
Maximum altitude 22:21:47 48° 304° (NW) 1,087 3.5 -31.3°
Drops below altitude 10° 22:27:14 10° 19° (NNE) 2,460 5.6 -31.7°
Sets 22:29:47 0° 25° (NNE) 3,398 6.4 -31.8°
